Location: Wingville
(42.9917°N, 90.4915°W)
Time: 05:30:00
(UTC+00:00)

ZACube-1 - Visible Passes

Search period start: 28 June 2022 00:00
Search period end: 08 July 2022 00:00
Orbit: 581 x 662 km, 97.6° (Epoch: 27 June)

Date Brightness Start Highest point End Pass type
(mag) Time Alt. Az. Time Alt. Az. Time Alt. Az.
28 Jun ? 09:25:43 10° NNE 09:29:51 37° E 09:34:02 10° SSE visible
29 Jun ? 09:43:20 10° NNE 09:47:44 58° E 09:52:11 10° S visible
01 Jul ? 08:44:29 10° ENE 08:46:51 14° E 08:49:12 10° ESE visible
02 Jul ? 09:01:23 10° NE 09:04:49 21° E 09:08:16 10° SE visible
03 Jul ? 09:18:42 10° NNE 09:22:45 32° E 09:26:48 10° SSE visible
04 Jul ? 09:36:15 10° NNE 09:40:38 49° E 09:45:02 10° S visible
06 Jul ? 08:37:53 10° ENE 08:39:39 12° E 08:41:25 10° ESE visible
07 Jul ? 08:54:28 10° NE 08:57:38 19° E 09:00:49 10° SE visible
